AEZ86 HTZA-FMCZ

Flight info

Callsign AEZ86
Flight time 1h 16m
Altitude 41000
Route EGTUT DCT KISIR DCT KOBEL DCT KINAN UB790 HAI
Aircraft B737/M-SDE2E3FGHIRWXY/LB1

Departure

Time 2026-04-19 06:31
Airport Abeid Amani Karume International Airport (HTZA)

Arrival

Time 2026-04-19 07:47
Airport Dzaoudzi Pamandzi International Airport (FMCZ)
Time Latitude Longitude Altitude Speed Heading
2026-04-19 06:24 -6.22070 39.22229 60 ft 0 kts 265°
2026-04-19 06:27 -6.22069 39.22236 60 ft 2 kts 263°
2026-04-19 06:27 -6.22068 39.22252 58 ft 2 kts 265°
2026-04-19 06:27 -6.22066 39.22269 58 ft 2 kts 266°
2026-04-19 06:27 -6.22065 39.22285 53 ft 2 kts 269°
2026-04-19 06:28 -6.22067 39.22302 53 ft 2 kts 300°
2026-04-19 06:28 -6.22075 39.22308 55 ft 0 kts 353°
2026-04-19 06:29 -6.22057 39.22306 55 ft 7 kts 353°
2026-04-19 06:29 -6.21994 39.22314 55 ft 11 kts 57°
2026-04-19 06:29 -6.21976 39.22389 57 ft 11 kts 84°
2026-04-19 06:30 -6.21983 39.22457 53 ft 9 kts 143°
2026-04-19 06:30 -6.22165 39.22488 54 ft 63 kts 174°
2026-04-19 06:30 -6.22874 39.22561 70 ft 136 kts 171°
2026-04-19 06:30 -6.23875 39.22708 653 ft 153 kts 175°
2026-04-19 06:31 -6.24966 39.22820 1497 ft 160 kts 174°
2026-04-19 06:31 -6.26124 39.22936 2189 ft 178 kts 172°
2026-04-19 06:31 -6.27439 39.23067 2766 ft 198 kts 172°
2026-04-19 06:31 -6.28862 39.23215 3310 ft 221 kts 172°
2026-04-19 06:32 -6.30538 39.23383 3830 ft 255 kts 172°
2026-04-19 06:32 -6.32324 39.23552 5169 ft 257 kts 172°
2026-04-19 06:32 -6.34120 39.23722 6467 ft 263 kts 172°
2026-04-19 06:32 -6.35937 39.23939 7549 ft 270 kts 163°
2026-04-19 06:33 -6.37678 39.24668 8711 ft 272 kts 148°
2026-04-19 06:33 -6.39277 39.25719 9866 ft 278 kts 142°
2026-04-19 06:33 -6.40884 39.26874 10692 ft 295 kts 142°
2026-04-19 06:33 -6.42611 39.28184 10972 ft 328 kts 139°
2026-04-19 06:34 -6.44410 39.29768 11261 ft 355 kts 136°
2026-04-19 06:34 -6.46258 39.31474 12010 ft 365 kts 136°
2026-04-19 06:34 -6.48137 39.33220 12943 ft 369 kts 136°
2026-04-19 06:34 -6.50040 39.34992 13856 ft 374 kts 136°
2026-04-19 06:35 -6.51307 39.36173 14339 ft 378 kts 136°
2026-04-19 06:35 -6.53253 39.37987 15031 ft 384 kts 136°
2026-04-19 06:35 -6.55230 39.39829 15745 ft 389 kts 136°
2026-04-19 06:35 -6.57228 39.41690 16431 ft 395 kts 136°
2026-04-19 06:36 -6.59263 39.43585 17112 ft 400 kts 136°
2026-04-19 06:36 -6.61317 39.45499 17789 ft 405 kts 136°
2026-04-19 06:36 -6.63395 39.47433 18392 ft 410 kts 136°
2026-04-19 06:36 -6.65501 39.49395 18908 ft 415 kts 136°
2026-04-19 06:37 -6.67629 39.51376 19496 ft 418 kts 136°
2026-04-19 06:37 -6.69772 39.53373 20055 ft 421 kts 136°
2026-04-19 06:37 -6.71935 39.55389 20503 ft 428 kts 136°
2026-04-19 06:37 -6.74129 39.57432 20987 ft 432 kts 136°
2026-04-19 06:38 -6.76351 39.59504 21446 ft 436 kts 136°
2026-04-19 06:38 -6.78558 39.61560 21917 ft 440 kts 136°
2026-04-19 06:38 -6.80812 39.63661 22362 ft 444 kts 136°
2026-04-19 06:38 -6.83091 39.65785 22799 ft 448 kts 136°
2026-04-19 06:39 -6.85384 39.67923 23237 ft 451 kts 136°
2026-04-19 06:39 -6.87698 39.70082 23617 ft 455 kts 136°
2026-04-19 06:39 -6.90026 39.72253 23963 ft 458 kts 136°
2026-04-19 06:39 -6.92365 39.74434 24344 ft 459 kts 136°
2026-04-19 06:40 -6.94712 39.76624 24721 ft 460 kts 136°
2026-04-19 06:40 -6.97066 39.78820 25073 ft 462 kts 136°
2026-04-19 06:40 -6.99432 39.81028 25433 ft 464 kts 136°
2026-04-19 06:40 -7.01800 39.83237 25730 ft 467 kts 136°
2026-04-19 06:41 -7.04193 39.85472 25969 ft 471 kts 136°
2026-04-19 06:41 -7.06595 39.87715 26268 ft 472 kts 136°
2026-04-19 06:41 -7.09008 39.89967 26588 ft 474 kts 136°
2026-04-19 06:41 -7.11425 39.92225 26898 ft 475 kts 137°
2026-04-19 06:42 -7.13853 39.94492 27157 ft 477 kts 136°
2026-04-19 06:42 -7.16293 39.96771 27433 ft 479 kts 136°
2026-04-19 06:42 -7.18735 39.99054 27735 ft 479 kts 137°
2026-04-19 06:42 -7.21191 40.01348 27995 ft 481 kts 136°
2026-04-19 06:43 -7.23650 40.03646 28195 ft 484 kts 137°
2026-04-19 06:43 -7.26094 40.05931 28392 ft 486 kts 137°
2026-04-19 06:43 -7.28576 40.08251 28616 ft 488 kts 137°
2026-04-19 06:43 -7.31065 40.10579 28856 ft 488 kts 137°
2026-04-19 06:44 -7.33552 40.12904 29085 ft 489 kts 137°
2026-04-19 06:44 -7.36043 40.15234 29322 ft 488 kts 137°
2026-04-19 06:44 -7.38535 40.17566 29597 ft 487 kts 137°
2026-04-19 06:44 -7.41006 40.19878 30067 ft 483 kts 137°
2026-04-19 06:45 -7.43466 40.22179 30368 ft 482 kts 137°
2026-04-19 06:45 -7.45928 40.24484 30547 ft 484 kts 137°
2026-04-19 06:45 -7.48404 40.26802 30763 ft 486 kts 137°
2026-04-19 06:45 -7.50863 40.29104 31286 ft 478 kts 137°
2026-04-19 06:46 -7.53290 40.31377 31872 ft 473 kts 137°
2026-04-19 06:46 -7.55661 40.33598 32403 ft 470 kts 138°
2026-04-19 06:46 -7.58079 40.35863 32958 ft 467 kts 138°
2026-04-19 06:46 -7.60425 40.38061 33489 ft 465 kts 138°
2026-04-19 06:47 -7.62795 40.40282 33949 ft 465 kts 138°
2026-04-19 06:47 -7.65164 40.42502 34330 ft 465 kts 137°
2026-04-19 06:47 -7.67539 40.44727 34639 ft 467 kts 137°
2026-04-19 06:47 -7.69917 40.46957 34991 ft 467 kts 138°
2026-04-19 06:48 -7.72292 40.49183 35360 ft 467 kts 138°
2026-04-19 06:48 -7.74672 40.51415 35667 ft 468 kts 138°
2026-04-19 06:48 -7.77051 40.53647 36013 ft 468 kts 138°
2026-04-19 06:48 -7.79429 40.55877 36401 ft 466 kts 138°
2026-04-19 06:49 -7.81797 40.58099 36847 ft 463 kts 138°
2026-04-19 06:49 -7.84154 40.60311 37231 ft 462 kts 138°
2026-04-19 06:49 -7.86508 40.62520 37538 ft 463 kts 138°
2026-04-19 06:49 -7.88873 40.64740 37826 ft 464 kts 138°
2026-04-19 06:50 -7.91231 40.66954 38115 ft 464 kts 139°
2026-04-19 06:50 -7.93599 40.69177 38438 ft 464 kts 138°
2026-04-19 06:50 -7.95957 40.71391 38743 ft 464 kts 139°
2026-04-19 06:50 -7.98312 40.73603 38978 ft 464 kts 139°
2026-04-19 06:51 -8.00678 40.75826 39294 ft 462 kts 138°
2026-04-19 06:51 -8.02995 40.78003 39579 ft 461 kts 138°
2026-04-19 06:51 -8.05345 40.80212 39798 ft 462 kts 139°
2026-04-19 06:51 -8.07702 40.82427 39915 ft 465 kts 139°
2026-04-19 06:52 -8.10072 40.84655 40133 ft 465 kts 138°
2026-04-19 06:52 -8.12438 40.86879 40405 ft 464 kts 138°
2026-04-19 06:52 -8.14804 40.89104 40577 ft 466 kts 138°
2026-04-19 06:52 -8.17177 40.91336 40749 ft 467 kts 139°
2026-04-19 06:53 -8.19562 40.93579 40924 ft 468 kts 138°
2026-04-19 06:53 -8.21952 40.95827 40978 ft 471 kts 138°
2026-04-19 06:53 -8.26777 41.00368 40974 ft 476 kts 139°
2026-04-19 06:54 -8.31627 41.04934 40985 ft 476 kts 138°
2026-04-19 06:54 -8.36444 41.09471 40976 ft 477 kts 138°
2026-04-19 06:55 -8.41298 41.14045 40981 ft 476 kts 138°
2026-04-19 06:55 -8.46138 41.18607 40980 ft 475 kts 138°
2026-04-19 06:56 -8.50969 41.23161 40975 ft 475 kts 138°
2026-04-19 06:56 -8.55805 41.27722 40989 ft 475 kts 139°
2026-04-19 06:57 -8.60625 41.32270 40977 ft 474 kts 139°
2026-04-19 06:57 -8.65451 41.36825 40978 ft 474 kts 139°
2026-04-19 06:58 -8.70274 41.41378 40982 ft 474 kts 139°
2026-04-19 06:58 -8.75098 41.45935 40981 ft 474 kts 139°
2026-04-19 06:59 -8.79886 41.50458 40982 ft 474 kts 138°
2026-04-19 06:59 -8.84716 41.55022 40973 ft 474 kts 138°
2026-04-19 07:00 -8.89533 41.59576 40982 ft 474 kts 139°
2026-04-19 07:00 -8.94346 41.64130 40986 ft 474 kts 138°
2026-04-19 07:01 -8.99161 41.68687 40981 ft 474 kts 138°
2026-04-19 07:01 -9.03977 41.73246 40980 ft 474 kts 138°
2026-04-19 07:02 -9.08792 41.77807 40980 ft 474 kts 139°
2026-04-19 07:02 -9.13611 41.82372 40985 ft 475 kts 139°
2026-04-19 07:03 -9.18428 41.86936 40979 ft 475 kts 139°
2026-04-19 07:03 -9.23258 41.91517 40980 ft 475 kts 139°
2026-04-19 07:04 -9.28084 41.96094 40979 ft 475 kts 139°
2026-04-19 07:04 -9.32883 42.00648 40987 ft 476 kts 139°
2026-04-19 07:05 -9.37711 42.05230 40982 ft 476 kts 139°
2026-04-19 07:05 -9.42538 42.09814 40981 ft 476 kts 139°
2026-04-19 07:06 -9.47369 42.14404 40989 ft 476 kts 139°
2026-04-19 07:06 -9.52199 42.18994 40990 ft 476 kts 139°
2026-04-19 07:07 -9.57023 42.23581 40986 ft 476 kts 139°
2026-04-19 07:07 -9.61860 42.28181 40988 ft 476 kts 139°
2026-04-19 07:08 -9.66693 42.32780 40987 ft 476 kts 139°
2026-04-19 07:08 -9.71486 42.37343 40981 ft 476 kts 139°
2026-04-19 07:09 -9.76316 42.41943 40980 ft 476 kts 139°
2026-04-19 07:09 -9.81137 42.46536 40990 ft 476 kts 139°
2026-04-19 07:10 -9.85964 42.51137 40984 ft 476 kts 139°
2026-04-19 07:10 -9.90793 42.55742 40981 ft 476 kts 139°
2026-04-19 07:11 -9.95613 42.60340 40987 ft 476 kts 139°
2026-04-19 07:11 -10.00438 42.64944 40983 ft 476 kts 139°
2026-04-19 07:12 -10.05264 42.69552 40987 ft 476 kts 139°
2026-04-19 07:12 -10.10089 42.74160 40981 ft 476 kts 139°
2026-04-19 07:13 -10.14921 42.78778 40991 ft 476 kts 139°
2026-04-19 07:13 -10.19744 42.83389 40992 ft 476 kts 139°
2026-04-19 07:14 -10.24565 42.88000 40983 ft 476 kts 139°
2026-04-19 07:14 -10.29385 42.92612 40992 ft 476 kts 139°
2026-04-19 07:15 -10.34208 42.97229 40988 ft 476 kts 139°
2026-04-19 07:16 -10.41396 43.04113 40983 ft 476 kts 139°
2026-04-19 07:16 -10.46212 43.08728 40997 ft 476 kts 139°
2026-04-19 07:17 -10.51023 43.13341 40987 ft 476 kts 139°
2026-04-19 07:17 -10.55836 43.17958 40988 ft 476 kts 139°
2026-04-19 07:18 -10.60649 43.22577 40988 ft 476 kts 139°
2026-04-19 07:18 -10.65460 43.27196 40990 ft 476 kts 139°
2026-04-19 07:19 -10.70274 43.31820 40989 ft 476 kts 139°
2026-04-19 07:19 -10.75053 43.36412 40988 ft 476 kts 139°
2026-04-19 07:20 -10.79868 43.41040 40992 ft 476 kts 139°
2026-04-19 07:20 -10.84675 43.45664 40988 ft 476 kts 139°
2026-04-19 07:21 -10.89489 43.50297 40992 ft 476 kts 139°
2026-04-19 07:21 -10.93477 43.54136 40989 ft 476 kts 139°
2026-04-19 07:22 -10.98291 43.58772 40988 ft 476 kts 139°
2026-04-19 07:22 -11.03099 43.63405 40993 ft 476 kts 139°
2026-04-19 07:23 -11.07905 43.68038 40989 ft 476 kts 139°
2026-04-19 07:23 -11.12713 43.72675 40981 ft 476 kts 139°
2026-04-19 07:24 -11.17518 43.77312 40982 ft 476 kts 139°
2026-04-19 07:24 -11.22323 43.81950 40985 ft 476 kts 139°
2026-04-19 07:25 -11.27126 43.86589 40985 ft 476 kts 139°
2026-04-19 07:25 -11.31902 43.91205 40992 ft 476 kts 139°
2026-04-19 07:26 -11.36710 43.95853 40989 ft 476 kts 139°
2026-04-19 07:26 -11.41521 44.00507 40995 ft 476 kts 139°
2026-04-19 07:27 -11.46329 44.05159 40994 ft 476 kts 139°
2026-04-19 07:27 -11.51137 44.09815 40994 ft 476 kts 139°
2026-04-19 07:28 -11.55910 44.14438 40991 ft 476 kts 139°
2026-04-19 07:28 -11.58317 44.16770 40650 ft 479 kts 139°
2026-04-19 07:28 -11.60713 44.19094 40108 ft 474 kts 139°
2026-04-19 07:28 -11.63112 44.21419 39364 ft 475 kts 139°
2026-04-19 07:29 -11.65502 44.23738 38623 ft 474 kts 139°
2026-04-19 07:29 -11.67895 44.26058 37763 ft 474 kts 139°
2026-04-19 07:29 -11.70280 44.28372 36985 ft 473 kts 139°
2026-04-19 07:29 -11.72660 44.30683 36176 ft 472 kts 139°
2026-04-19 07:30 -11.75037 44.32990 35301 ft 473 kts 139°
2026-04-19 07:30 -11.77427 44.35310 34340 ft 475 kts 139°
2026-04-19 07:30 -11.79831 44.37644 33242 ft 477 kts 139°
2026-04-19 07:30 -11.82234 44.39979 32137 ft 478 kts 139°
2026-04-19 07:31 -11.84645 44.42321 31017 ft 478 kts 139°
2026-04-19 07:31 -11.87054 44.44663 29816 ft 479 kts 138°
2026-04-19 07:31 -11.89465 44.47007 28492 ft 479 kts 138°
2026-04-19 07:31 -11.91884 44.49360 27216 ft 479 kts 138°
2026-04-19 07:32 -11.94290 44.51700 26096 ft 476 kts 138°
2026-04-19 07:32 -11.96675 44.54022 25070 ft 472 kts 137°
2026-04-19 07:32 -11.99041 44.56325 24056 ft 468 kts 137°
2026-04-19 07:32 -12.01394 44.58616 22938 ft 465 kts 137°
2026-04-19 07:33 -12.03696 44.60858 21857 ft 460 kts 137°
2026-04-19 07:33 -12.05997 44.63100 20841 ft 454 kts 137°
2026-04-19 07:33 -12.08267 44.65312 19820 ft 447 kts 137°
2026-04-19 07:33 -12.10504 44.67492 18815 ft 441 kts 137°
2026-04-19 07:34 -12.12709 44.69641 17741 ft 435 kts 137°
2026-04-19 07:34 -12.14884 44.71761 16690 ft 428 kts 137°
2026-04-19 07:34 -12.17015 44.73840 15708 ft 420 kts 137°
2026-04-19 07:34 -12.19119 44.75891 14709 ft 415 kts 136°
2026-04-19 07:35 -12.21191 44.77911 13737 ft 409 kts 136°
2026-04-19 07:35 -12.23233 44.79903 12683 ft 404 kts 136°
2026-04-19 07:35 -12.25243 44.81865 11728 ft 396 kts 136°
2026-04-19 07:35 -12.27227 44.83802 10799 ft 390 kts 136°
2026-04-19 07:36 -12.29126 44.85656 10577 ft 366 kts 135°
2026-04-19 07:36 -12.30912 44.87399 10412 ft 343 kts 135°
2026-04-19 07:36 -12.32588 44.89035 10255 ft 324 kts 135°
2026-04-19 07:36 -12.34171 44.90581 10121 ft 307 kts 135°
2026-04-19 07:37 -12.35678 44.92054 9981 ft 292 kts 135°
2026-04-19 07:37 -12.37082 44.93425 9856 ft 276 kts 135°
2026-04-19 07:37 -12.38491 44.94804 9242 ft 281 kts 135°
2026-04-19 07:37 -12.39904 44.96186 8768 ft 280 kts 135°
2026-04-19 07:38 -12.41307 44.97559 8346 ft 278 kts 135°
2026-04-19 07:38 -12.42698 44.98920 7933 ft 276 kts 135°
2026-04-19 07:38 -12.44081 45.00274 7521 ft 273 kts 135°
2026-04-19 07:38 -12.45449 45.01611 7127 ft 271 kts 135°
2026-04-19 07:39 -12.46805 45.02939 6736 ft 269 kts 135°
2026-04-19 07:39 -12.48153 45.04258 6343 ft 267 kts 134°
2026-04-19 07:39 -12.49489 45.05566 5929 ft 265 kts 135°
2026-04-19 07:39 -12.50816 45.06866 5564 ft 262 kts 135°
2026-04-19 07:40 -12.52102 45.08124 5412 ft 251 kts 135°
2026-04-19 07:40 -12.53332 45.09329 5284 ft 239 kts 135°
2026-04-19 07:40 -12.54508 45.10481 5176 ft 228 kts 135°
2026-04-19 07:40 -12.55631 45.11581 5078 ft 218 kts 135°
2026-04-19 07:41 -12.56703 45.12631 4984 ft 208 kts 135°
2026-04-19 07:41 -12.57725 45.13632 4880 ft 200 kts 135°
2026-04-19 07:41 -12.58724 45.14612 4676 ft 198 kts 135°
2026-04-19 07:41 -12.59718 45.15581 4439 ft 197 kts 136°
2026-04-19 07:42 -12.60864 45.16350 4207 ft 198 kts 149°
2026-04-19 07:42 -12.62060 45.17032 3988 ft 196 kts 148°
2026-04-19 07:42 -12.63249 45.17726 3722 ft 197 kts 148°
2026-04-19 07:42 -12.64429 45.18422 3530 ft 194 kts 148°
2026-04-19 07:43 -12.65588 45.19112 3300 ft 193 kts 148°
2026-04-19 07:43 -12.66746 45.19808 3051 ft 193 kts 148°
2026-04-19 07:43 -12.67898 45.20491 2829 ft 188 kts 148°
2026-04-19 07:43 -12.69005 45.21147 2610 ft 182 kts 148°
2026-04-19 07:44 -12.70088 45.21789 2371 ft 177 kts 148°
2026-04-19 07:44 -12.71130 45.22404 2161 ft 169 kts 148°
2026-04-19 07:44 -12.72132 45.22995 1916 ft 164 kts 148°
2026-04-19 07:44 -12.73092 45.23563 1674 ft 159 kts 147°
2026-04-19 07:45 -12.74022 45.24115 1403 ft 150 kts 148°
2026-04-19 07:45 -12.74887 45.24628 1195 ft 139 kts 148°
2026-04-19 07:45 -12.75701 45.25112 1001 ft 124 kts 148°
2026-04-19 07:45 -12.76436 45.25543 921 ft 126 kts 148°
2026-04-19 07:46 -12.77200 45.25993 802 ft 126 kts 148°
2026-04-19 07:46 -12.77934 45.26444 670 ft 121 kts 148°
2026-04-19 07:46 -12.78668 45.26901 533 ft 125 kts 148°
2026-04-19 07:46 -12.79431 45.27332 254 ft 124 kts 149°
2026-04-19 07:47 -12.80172 45.27764 37 ft 120 kts 147°
2026-04-19 07:47 -12.80832 45.28162 15 ft 92 kts 149°
2026-04-19 07:47 -12.81109 45.28309 16 ft 12 kts 167°
2026-04-19 07:47 -12.81117 45.28332 19 ft 4 kts 17°
2026-04-19 07:48 -12.81088 45.28316 17 ft 6 kts 327°
2026-04-19 07:48 -12.81038 45.28283 18 ft 11 kts 327°
2026-04-19 07:48 -12.80955 45.28231 15 ft 17 kts 329°
2026-04-19 07:48 -12.80839 45.28160 15 ft 22 kts 330°
2026-04-19 07:49 -12.80708 45.28083 14 ft 19 kts 330°
2026-04-19 07:49 -12.80632 45.28122 13 ft 14 kts 59°
2026-04-19 07:49 -12.80594 45.28189 12 ft 6 kts 60°
2026-04-19 07:49 -12.80593 45.28192 12 ft 0 kts 60°